Tracking 18984 objects as of 24-Feb-2018
HD Live streaming from Space Station
objects crossing your sky now

FENGYUN 1C DEB

Track FENGYUN 1C DEB now!
10-day predictions


NORAD ID: 36694
Int'l Code: 1999-025DZQ
Perigee: 773.0 km
Apogee: 938.4 km
Inclination: 99.0 °
Period: 101.9 minutes
Semi major axis: 7226 km
RCS: 0.0069 m2 (small)
Launch date: May 10, 1999
Source: People's Republic of China (PRC)
Launch site: Taiyaun Space Center, China (TSC)

Note: This is SATELLITE DEBRIS
aabbcc
Your satellite tracking list
Your tracking list is empty




NASA's NSSDC Master Catalog

Two Line Element Set (TLE):
1 36694U 99025DZQ 18052.07490226 +.00000303 +00000-0 +17432-3 0  9995
2 36694 098.9697 004.4152 0114428 102.0466 259.3556 14.13164133533130
Source of the keplerian elements: AFSPC